This is the latest recevied weather packets stored in our database for station/object VE9LJW. If no packets are shown the sender has not sent any weather packets the latest 10 day(s).
| Time | Temp. | Humidity | Pressure | Rain* | Wind** | Luminosity | Snow |
|---|---|---|---|---|---|---|---|
| 1777929052 | 15° C | 74% | 1001.3 hPa | 0 mm | - | 136 W/m² | - |
| 1777928749 | 15° C | 74% | 1001 hPa | 0 mm | - | 157 W/m² | - |
| 1777928445 | 14.44° C | 74% | 1001.1 hPa | 0 mm | - | 252 W/m² | - |
| 1777928143 | 15° C | 74% | 1001.2 hPa | 0 mm | - | 124 W/m² | - |
| 1777927841 | 15° C | 74% | 1001.3 hPa | 0 mm | - | 175 W/m² | - |
| 1777927539 | 15° C | 74% | 1001.2 hPa | 0 mm | - | 193 W/m² | - |
| 1777927238 | 15° C | 73% | 1001.3 hPa | 0 mm | - | 177 W/m² | - |
| 1777926935 | 14.44° C | 74% | 1001 hPa | 0 mm | - | 224 W/m² | - |
| 1777926633 | 13.89° C | 75% | 1001 hPa | 0 mm | - | 158 W/m² | - |
| 1777926328 | 14.44° C | 75% | 1001.2 hPa | 0 mm | - | 86 W/m² | - |
| 1777926025 | 14.44° C | 76% | 1001.2 hPa | 0 mm | - | 99 W/m² | - |
| 1777925722 | 14.44° C | 75% | 1001.2 hPa | 0 mm | - | 84 W/m² | - |
| 1777925420 | 14.44° C | 75% | 1001.2 hPa | 0 mm | - | 60 W/m² | - |
| 1777925116 | 14.44° C | 76% | 1001.3 hPa | 0 mm | - | 77 W/m² | - |
| 1777924813 | 14.44° C | 75% | 1000.8 hPa | 0 mm | - | 147 W/m² | - |
| 1777924509 | 14.44° C | 75% | 1001.1 hPa | 0 mm | - | 213 W/m² | - |
| 1777924206 | 14.44° C | 76% | 1000.9 hPa | 0 mm | - | 133 W/m² | - |
| 1777923902 | 13.89° C | 77% | 1001 hPa | 0 mm | - | 131 W/m² | - |
| 1777923597 | 14.44° C | 77% | 1001.1 hPa | 0 mm | - | 92 W/m² | - |
| 1777923295 | 14.44° C | 77% | 1000.8 hPa | 0 mm | - | 117 W/m² | - |
| 1777922994 | 13.89° C | 76% | 1001.1 hPa | 0 mm | - | 139 W/m² | - |
| 1777922690 | 14.44° C | 78% | 1001.2 hPa | 0 mm | - | 94 W/m² | - |
| 1777922389 | 13.89° C | 77% | 1001.2 hPa | 0 mm | - | 160 W/m² | - |
| 1777922087 | 14.44° C | 75% | 1001.4 hPa | 0 mm | - | 143 W/m² | - |
| 1777921782 | 14.44° C | 75% | 1001.4 hPa | 0 mm | - | 230 W/m² | - |
* Rain latest hour (hover to see other rain measurements)
** Current wind speed in m/s (hover to see current wind gust speed)